NIMIQ 1

导读

**NIMIQ 1(也作Nimiq 1)是加拿大Telesat公司运营的首颗Nimiq系列通信卫星,于1999年5月20日发射升空。该卫星由洛克希德·马丁公司制造,属于大功率Ku波段通信卫星,搭载32个高功率Ku波段转发器,主要为加拿大本土提供直播到户卫星电视广播服务,是加拿大卫星通信广播领域的重要基础设施,显著推动了北美地区卫星电视产业发展。**

Basic Information
目录编号:
25740
目录名称:
NIMIQ 1
国际标识:
1999-027A
轨道中心:
EARTH
卫星名称:
NIMIQ 1
卫星全名:
--
卫星状态:
在轨 (已飞行9890 天)
发射日期:
1999-05-20 UTC
国别 :
加拿大 (CA)
星等 :
--
Orbit Information
数据来源 国际轨道数据 AOE轨道数据
星历时间 2026-06-16T18:40:28+0800
21小时前
查看轨道信息
2026-06-16T10:00:00+0800
1天前
查看轨道信息
半长轴 42646.088km 42646.059km
偏心率 0.0010735 0.0010772
轨道倾角 6.624° 6.624°
近地点辐角 315.343° 315.017°
升交点赤经 70.815° 70.821°
平近点角 337.617° 209.669°
近地点 36222.17km 36221.983km
远地点 36313.732km 36313.861km
周期 1460.759分钟 1460.757分钟
每日圈数 0.985789 0.98579
Detailed Information
使用方式:
暂无
2D Orbit Map
3D Orbit Map
Orbit Altitude Analysis Chart
Orbit Inclination Analysis Chart
Orbit Comprehensive Analysis Chart
View Comprehensive Chart